GFSNE_prec_precacc_081.txt.gz
Total_Precipitation_Accumulation
0.25 0.22 0.16 0.14 0.17 0.19 0.22 0.28 0.44 0.48 0.36 0.30 0.31 0.30 0.30 0.35 0.45 0.46 0.50 0.65 0.79 0.88 0.90 0.92 0.78 0.79 0.71 0.67 0.66 0.43 0.40 0.40 0.37 0.45 0.58 0.68 0.82 0.98
0.24 0.27 0.28 0.26 0.23 0.22 0.24 0.30 0.40 0.63 0.81 0.71 0.68 0.66 0.65 0.65 0.72 0.67 0.72 0.83 0.77 0.75 0.77 0.62 0.53 0.46 0.39 0.38 0.37 0.35 0.35 0.38 0.43 0.49 0.56 0.73 0.98 1.06
0.46 0.47 0.48 0.45 0.48 0.54 0.63 0.76 0.89 1.00 1.13 1.03 0.92 0.85 0.81 0.79 0.76 0.62 0.50 0.40 0.39 0.46 0.39 0.34 0.27 0.21 0.19 0.17 0.16 0.16 0.18 0.23 0.31 0.38 0.49 0.54 0.60 0.68
0.29 0.36 0.40 0.41 0.42 0.42 0.47 0.56 0.73 0.90 1.06 1.05 0.95 0.86 0.75 0.60 0.45 0.32 0.27 0.25 0.23 0.29 0.22 0.14 0.12 0.12 0.12 0.13 0.13 0.12 0.11 0.13 0.16 0.18 0.19 0.21 0.23 0.28
0.29 0.31 0.34 0.36 0.40 0.40 0.43 0.50 0.59 0.65 0.66 0.56 0.45 0.38 0.35 0.34 0.35 0.31 0.27 0.20 0.14 0.15 0.10 0.08 0.08 0.08 0.08 0.07 0.06 0.06 0.06 0.04 0.04 0.03 0.05 0.07 0.09 0.11
0.08 0.11 0.17 0.26 0.37 0.52 0.70 0.78 0.68 0.52 0.42 0.33 0.29 0.22 0.17 0.13 0.10 0.10 0.07 0.04 0.02 0.01 0.01 0.00 0.00 0.00 0.00 0.00 0.00 0.00 0.00 0.00 0.00 0.01 0.02 0.04 0.08 0.09
0.23 0.27 0.32 0.41 0.46 0.43 0.35 0.28 0.24 0.21 0.19 0.21 0.18 0.12 0.07 0.04 0.04 0.03 0.03 0.02 0.00 0.00 0.00 0.00 0.00 0.00 0.00 0.00 0.00 0.00 0.00 0.01 0.01 0.03 0.05 0.08 0.11 0.14
0.31 0.34 0.37 0.42 0.35 0.31 0.23 0.16 0.11 0.17 0.16 0.11 0.08 0.03 0.01 0.00 0.00 0.01 0.03 0.06 0.05 0.00 0.00 0.00 0.00 0.00 0.00 0.00 0.00 0.00 0.00 0.01 0.01 0.02 0.06 0.10 0.11 0.12
0.25 0.22 0.19 0.18 0.15 0.10 0.10 0.08 0.13 0.09 0.05 0.02 0.01 0.00 0.00 0.01 0.06 0.08 0.07 0.08 0.03 0.00 0.01 0.00 0.00 0.00 0.00 0.00 0.00 0.00 0.00 0.00 0.01 0.02 0.04 0.07 0.08 0.09
0.15 0.13 0.09 0.04 0.03 0.03 0.04 0.09 0.04 0.01 0.00 0.00 0.00 0.00 0.02 0.03 0.07 0.13 0.05 0.02 0.01 0.00 0.00 0.01 0.00 0.00 0.00 0.00 0.00 0.00 0.00 0.00 0.01 0.02 0.04 0.05 0.07 0.08
0.07 0.02 0.01 0.00 0.02 0.02 0.04 0.02 0.00 0.00 0.00 0.00 0.01 0.01 0.01 0.01 0.00 0.01 0.02 0.04 0.03 0.00 0.00 0.00 0.00 0.00 0.00 0.00 0.00 0.00 0.00 0.00 0.00 0.01 0.01 0.02 0.04 0.05
0.00 0.00 0.01 0.01 0.02 0.04 0.03 0.01 0.00 0.00 0.03 0.02 0.00 0.00 0.00 0.00 0.00 0.00 0.01 0.12 0.09 0.11 0.00 0.10 0.04 0.03 0.15 0.01 0.00 0.00 0.00 0.00 0.00 0.00 0.01 0.01 0.03 0.06
0.00 0.00 0.00 0.01 0.03 0.03 0.02 0.00 0.00 0.01 0.01 0.00 0.00 0.00 0.00 0.00 0.00 0.00 0.00 0.10 0.24 0.18 0.00 0.29 0.34 0.04 0.23 0.07 0.00 0.00 0.00 0.00 0.00 0.00 0.00 0.01 0.04 0.10
0.01 0.01 0.01 0.02 0.02 0.00 0.00 0.00 0.01 0.01 0.00 0.00 0.00 0.00 0.00 0.00 0.00 0.00 0.00 0.00 0.04 0.14 0.03 0.12 0.57 0.16 0.35 0.21 0.02 0.00 0.00 0.00 0.00 0.02 0.01 0.02 0.04 0.05
0.01 0.01 0.01 0.00 0.00 0.00 0.00 0.00 0.00 0.00 0.00 0.00 0.00 0.00 0.00 0.00 0.00 0.00 0.00 0.00 0.00 0.00 0.00 0.00 0.18 0.19 0.38 0.38 0.18 0.03 0.03 0.01 0.00 0.01 0.05 0.08 0.10 0.08
0.00 0.00 0.00 0.00 0.00 0.00 0.00 0.00 0.00 0.00 0.00 0.01 0.01 0.01 0.00 0.00 0.00 0.00 0.01 0.01 0.04 0.00 0.00 0.00 0.01 0.17 0.36 0.16 0.23 0.17 0.02 0.08 0.04 0.06 0.12 0.08 0.06 0.11
0.05 0.02 0.00 0.00 0.00 0.00 0.00 0.00 0.00 0.00 0.00 0.00 0.02 0.02 0.01 0.00 0.00 0.00 0.02 0.06 0.10 0.02 0.00 0.00 0.00 0.01 0.06 0.11 0.27 0.05 0.01 0.01 0.04 0.12 0.19 0.18 0.11 0.24
0.04 0.02 0.00 0.00 0.00 0.00 0.00 0.01 0.01 0.01 0.01 0.01 0.02 0.03 0.05 0.03 0.04 0.02 0.02 0.06 0.07 0.02 0.02 0.00 0.01 0.07 0.03 0.01 0.06 0.13 0.13 0.02 0.01 0.06 0.16 0.49 0.20 0.10
0.07 0.01 0.02 0.01 0.01 0.01 0.00 0.01 0.01 0.00 0.01 0.03 0.04 0.04 0.08 0.08 0.04 0.04 0.03 0.05 0.04 0.02 0.01 0.01 0.11 0.33 0.44 0.10 0.00 0.02 0.36 0.25 0.06 0.06 0.14 0.28 0.35 0.19
0.06 0.02 0.01 0.01 0.02 0.02 0.01 0.02 0.02 0.01 0.01 0.02 0.06 0.09 0.12 0.14 0.08 0.07 0.06 0.12 0.15 0.11 0.06 0.01 0.05 0.25 0.72 0.49 0.38 0.04 0.04 0.35 0.49 0.34 0.15 0.12 0.28 0.21
0.02 0.02 0.01 0.02 0.03 0.03 0.02 0.03 0.03 0.04 0.06 0.09 0.06 0.07 0.10 0.21 0.13 0.06 0.08 0.08 0.15 0.18 0.15 0.02 0.00 0.05 0.22 0.44 0.39 0.03 0.00 0.03 0.30 0.75 0.62 0.47 0.13 0.07
0.03 0.05 0.04 0.06 0.06 0.04 0.04 0.03 0.03 0.02 0.04 0.05 0.06 0.09 0.12 0.19 0.26 0.19 0.12 0.18 0.10 0.08 0.10 0.03 0.00 0.04 0.17 0.45 0.26 0.07 0.02 0.00 0.01 0.05 0.27 0.87 0.96 0.77
0.11 0.13 0.09 0.08 0.08 0.06 0.06 0.05 0.03 0.02 0.05 0.08 0.07 0.10 0.16 0.24 0.15 0.17 0.15 0.12 0.14 0.19 0.12 0.10 0.03 0.05 0.12 0.19 0.25 0.18 0.08 0.02 0.01 0.02 0.03 0.09 0.19 0.30

GFSNE_prec_precacc_084.txt.gz
Total_Precipitation_Accumulation
0.27 0.25 0.18 0.16 0.18 0.19 0.22 0.28 0.44 0.48 0.36 0.30 0.31 0.30 0.30 0.35 0.45 0.46 0.50 0.65 0.79 0.89 0.90 0.93 0.79 0.79 0.71 0.67 0.66 0.44 0.40 0.40 0.37 0.45 0.59 0.68 0.82 0.98
0.27 0.27 0.28 0.26 0.23 0.22 0.24 0.30 0.40 0.63 0.81 0.71 0.68 0.66 0.65 0.65 0.72 0.67 0.72 0.83 0.77 0.75 0.77 0.62 0.53 0.46 0.39 0.38 0.37 0.35 0.35 0.38 0.43 0.50 0.57 0.73 0.98 1.06
0.46 0.47 0.48 0.45 0.48 0.54 0.63 0.76 0.89 1.00 1.13 1.03 0.92 0.85 0.81 0.79 0.76 0.62 0.50 0.40 0.39 0.46 0.39 0.34 0.27 0.21 0.19 0.17 0.16 0.16 0.18 0.23 0.31 0.38 0.49 0.54 0.61 0.68
0.29 0.36 0.40 0.41 0.42 0.42 0.47 0.56 0.73 0.90 1.06 1.05 0.95 0.87 0.75 0.60 0.45 0.32 0.27 0.25 0.23 0.30 0.23 0.14 0.12 0.12 0.12 0.13 0.13 0.12 0.11 0.13 0.16 0.18 0.19 0.22 0.24 0.30
0.29 0.31 0.34 0.36 0.40 0.40 0.43 0.50 0.59 0.65 0.66 0.56 0.45 0.38 0.35 0.34 0.35 0.31 0.27 0.20 0.14 0.16 0.10 0.08 0.08 0.08 0.08 0.07 0.06 0.06 0.06 0.04 0.04 0.03 0.05 0.10 0.16 0.14
0.08 0.11 0.17 0.26 0.37 0.52 0.70 0.78 0.68 0.52 0.42 0.33 0.29 0.22 0.17 0.13 0.10 0.10 0.07 0.04 0.02 0.01 0.01 0.00 0.00 0.00 0.00 0.00 0.00 0.00 0.00 0.00 0.00 0.01 0.02 0.04 0.09 0.14
0.24 0.27 0.32 0.41 0.46 0.43 0.35 0.28 0.24 0.21 0.19 0.21 0.18 0.12 0.07 0.04 0.04 0.03 0.03 0.02 0.00 0.00 0.00 0.00 0.00 0.00 0.00 0.00 0.00 0.00 0.00 0.01 0.01 0.03 0.05 0.08 0.12 0.14
0.31 0.34 0.37 0.42 0.35 0.31 0.23 0.16 0.11 0.17 0.16 0.11 0.08 0.03 0.01 0.00 0.00 0.01 0.03 0.06 0.05 0.00 0.00 0.00 0.00 0.00 0.00 0.00 0.00 0.00 0.00 0.01 0.01 0.02 0.06 0.10 0.11 0.12
0.25 0.22 0.19 0.18 0.15 0.10 0.10 0.08 0.13 0.09 0.05 0.02 0.01 0.00 0.00 0.01 0.06 0.08 0.07 0.09 0.04 0.00 0.01 0.00 0.00 0.00 0.00 0.00 0.00 0.00 0.00 0.00 0.01 0.02 0.04 0.07 0.08 0.09
0.15 0.13 0.09 0.04 0.03 0.03 0.04 0.09 0.04 0.01 0.00 0.00 0.00 0.00 0.02 0.03 0.07 0.13 0.05 0.03 0.01 0.00 0.00 0.01 0.00 0.00 0.00 0.00 0.00 0.00 0.00 0.00 0.01 0.02 0.04 0.05 0.07 0.08
0.07 0.02 0.01 0.00 0.02 0.03 0.04 0.02 0.00 0.00 0.00 0.00 0.01 0.01 0.01 0.01 0.00 0.01 0.02 0.04 0.03 0.00 0.00 0.00 0.00 0.00 0.00 0.00 0.00 0.00 0.00 0.00 0.00 0.01 0.01 0.02 0.04 0.05
0.00 0.00 0.01 0.01 0.02 0.05 0.03 0.01 0.00 0.00 0.03 0.02 0.00 0.00 0.00 0.00 0.00 0.00 0.01 0.12 0.09 0.11 0.00 0.10 0.04 0.03 0.15 0.01 0.00 0.00 0.00 0.00 0.00 0.00 0.01 0.01 0.03 0.06
0.00 0.00 0.00 0.01 0.03 0.03 0.02 0.00 0.00 0.01 0.01 0.00 0.00 0.00 0.00 0.00 0.00 0.00 0.00 0.10 0.24 0.18 0.00 0.29 0.34 0.04 0.23 0.07 0.00 0.00 0.00 0.00 0.00 0.00 0.00 0.01 0.04 0.10
0.01 0.01 0.01 0.02 0.02 0.01 0.01 0.00 0.01 0.01 0.00 0.00 0.00 0.00 0.00 0.00 0.00 0.00 0.00 0.00 0.04 0.14 0.03 0.12 0.57 0.16 0.35 0.21 0.02 0.00 0.00 0.00 0.00 0.02 0.01 0.02 0.04 0.05
0.01 0.01 0.01 0.00 0.00 0.00 0.01 0.00 0.00 0.00 0.00 0.00 0.00 0.00 0.00 0.00 0.00 0.00 0.00 0.00 0.00 0.00 0.00 0.00 0.18 0.19 0.38 0.38 0.18 0.03 0.03 0.01 0.00 0.01 0.05 0.08 0.10 0.08
0.02 0.02 0.01 0.00 0.00 0.00 0.00 0.00 0.00 0.00 0.00 0.01 0.01 0.01 0.00 0.00 0.00 0.00 0.01 0.01 0.04 0.00 0.00 0.00 0.01 0.17 0.36 0.16 0.23 0.17 0.02 0.08 0.04 0.06 0.12 0.08 0.06 0.11
0.17 0.09 0.04 0.01 0.00 0.00 0.00 0.00 0.00 0.00 0.00 0.00 0.02 0.02 0.01 0.00 0.00 0.00 0.02 0.06 0.10 0.02 0.00 0.00 0.00 0.01 0.06 0.11 0.27 0.05 0.01 0.01 0.04 0.12 0.19 0.18 0.11 0.24
0.21 0.12 0.07 0.03 0.01 0.00 0.00 0.01 0.01 0.01 0.01 0.01 0.02 0.03 0.05 0.03 0.04 0.02 0.02 0.06 0.07 0.02 0.02 0.00 0.01 0.07 0.03 0.01 0.06 0.13 0.13 0.02 0.01 0.06 0.16 0.49 0.20 0.10
0.25 0.06 0.04 0.04 0.03 0.01 0.00 0.01 0.01 0.00 0.01 0.03 0.04 0.04 0.08 0.08 0.04 0.04 0.03 0.05 0.04 0.02 0.01 0.01 0.11 0.33 0.44 0.10 0.00 0.02 0.36 0.25 0.06 0.06 0.14 0.28 0.35 0.19
0.13 0.05 0.02 0.03 0.03 0.03 0.02 0.03 0.03 0.01 0.01 0.02 0.06 0.09 0.12 0.14 0.08 0.07 0.06 0.12 0.15 0.11 0.06 0.01 0.05 0.25 0.72 0.49 0.38 0.04 0.04 0.35 0.49 0.34 0.15 0.12 0.28 0.21
0.04 0.07 0.02 0.03 0.06 0.07 0.08 0.09 0.07 0.05 0.07 0.10 0.06 0.07 0.10 0.21 0.13 0.06 0.08 0.08 0.15 0.18 0.15 0.02 0.00 0.05 0.22 0.44 0.39 0.03 0.00 0.03 0.30 0.75 0.62 0.47 0.13 0.07
0.05 0.11 0.11 0.11 0.15 0.17 0.17 0.13 0.10 0.05 0.05 0.05 0.06 0.09 0.12 0.19 0.26 0.19 0.12 0.18 0.10 0.08 0.10 0.03 0.00 0.04 0.17 0.45 0.26 0.07 0.02 0.00 0.01 0.05 0.27 0.87 0.96 0.77
0.16 0.19 0.20 0.20 0.22 0.23 0.22 0.17 0.10 0.05 0.05 0.08 0.07 0.10 0.16 0.24 0.15 0.17 0.15 0.12 0.14 0.19 0.12 0.10 0.03 0.05 0.12 0.19 0.25 0.18 0.08 0.02 0.01 0.02 0.03 0.09 0.19 0.30

GFSNE_prec_precacc_087.txt.gz
Total_Precipitation_Accumulation
0.31 0.28 0.21 0.18 0.21 0.22 0.24 0.28 0.45 0.48 0.36 0.30 0.31 0.30 0.30 0.35 0.45 0.46 0.50 0.65 0.79 0.89 0.90 0.93 0.79 0.79 0.71 0.67 0.66 0.44 0.41 0.40 0.37 0.46 0.59 0.69 0.83 0.99
0.32 0.39 0.36 0.28 0.24 0.23 0.24 0.30 0.40 0.63 0.81 0.71 0.68 0.66 0.65 0.65 0.72 0.67 0.72 0.83 0.77 0.75 0.77 0.62 0.53 0.46 0.39 0.38 0.37 0.36 0.35 0.38 0.43 0.50 0.58 0.74 0.99 1.07
0.51 0.58 0.62 0.47 0.48 0.54 0.63 0.76 0.89 1.00 1.13 1.03 0.92 0.85 0.81 0.79 0.76 0.62 0.50 0.40 0.39 0.46 0.39 0.34 0.27 0.21 0.19 0.17 0.16 0.16 0.18 0.23 0.31 0.38 0.49 0.54 0.61 0.68
0.32 0.41 0.43 0.41 0.42 0.42 0.47 0.56 0.73 0.90 1.06 1.05 0.95 0.87 0.75 0.60 0.45 0.32 0.27 0.25 0.23 0.30 0.23 0.14 0.12 0.12 0.12 0.13 0.13 0.12 0.11 0.13 0.16 0.18 0.19 0.22 0.25 0.30
0.33 0.35 0.35 0.36 0.40 0.40 0.43 0.50 0.59 0.65 0.66 0.56 0.45 0.38 0.35 0.34 0.35 0.31 0.27 0.20 0.14 0.16 0.10 0.08 0.08 0.08 0.08 0.07 0.06 0.06 0.06 0.04 0.04 0.03 0.05 0.10 0.21 0.19
0.10 0.11 0.17 0.26 0.37 0.52 0.70 0.78 0.68 0.52 0.42 0.33 0.29 0.22 0.17 0.13 0.10 0.10 0.07 0.04 0.02 0.01 0.01 0.00 0.00 0.00 0.00 0.00 0.00 0.00 0.00 0.00 0.00 0.01 0.02 0.04 0.10 0.20
0.25 0.28 0.33 0.42 0.47 0.43 0.35 0.28 0.24 0.21 0.19 0.21 0.18 0.12 0.07 0.04 0.04 0.03 0.03 0.02 0.00 0.00 0.00 0.00 0.00 0.00 0.00 0.00 0.00 0.00 0.00 0.01 0.01 0.03 0.05 0.08 0.12 0.18
0.33 0.35 0.38 0.43 0.35 0.31 0.23 0.16 0.11 0.17 0.16 0.11 0.08 0.03 0.01 0.00 0.00 0.01 0.03 0.06 0.05 0.00 0.00 0.00 0.00 0.00 0.00 0.00 0.00 0.00 0.00 0.01 0.01 0.02 0.06 0.10 0.11 0.12
0.25 0.23 0.20 0.18 0.15 0.10 0.10 0.08 0.13 0.09 0.05 0.02 0.01 0.00 0.00 0.01 0.06 0.08 0.07 0.09 0.04 0.00 0.01 0.00 0.00 0.00 0.00 0.00 0.00 0.00 0.00 0.00 0.01 0.02 0.04 0.07 0.08 0.09
0.15 0.13 0.09 0.04 0.03 0.03 0.04 0.09 0.04 0.01 0.00 0.00 0.00 0.00 0.02 0.03 0.07 0.13 0.05 0.03 0.01 0.00 0.00 0.01 0.00 0.00 0.00 0.00 0.00 0.00 0.00 0.00 0.01 0.02 0.04 0.05 0.07 0.08
0.07 0.02 0.01 0.00 0.02 0.03 0.04 0.02 0.00 0.00 0.00 0.00 0.01 0.01 0.01 0.01 0.00 0.01 0.02 0.04 0.03 0.00 0.00 0.00 0.00 0.00 0.00 0.00 0.00 0.00 0.00 0.00 0.00 0.01 0.01 0.02 0.04 0.05
0.00 0.00 0.01 0.01 0.02 0.05 0.03 0.01 0.00 0.00 0.03 0.02 0.00 0.00 0.00 0.00 0.00 0.00 0.01 0.12 0.09 0.11 0.00 0.10 0.04 0.03 0.15 0.01 0.00 0.00 0.00 0.00 0.00 0.00 0.01 0.01 0.03 0.06
0.00 0.00 0.00 0.01 0.03 0.04 0.02 0.00 0.00 0.01 0.01 0.00 0.00 0.00 0.00 0.00 0.00 0.00 0.00 0.10 0.24 0.18 0.00 0.29 0.34 0.04 0.23 0.07 0.00 0.00 0.00 0.00 0.00 0.00 0.00 0.01 0.04 0.10
0.01 0.01 0.01 0.02 0.02 0.01 0.01 0.01 0.01 0.01 0.00 0.00 0.00 0.00 0.00 0.00 0.00 0.00 0.00 0.00 0.04 0.14 0.03 0.12 0.57 0.16 0.35 0.21 0.02 0.00 0.00 0.00 0.00 0.02 0.01 0.02 0.04 0.05
0.02 0.02 0.03 0.02 0.01 0.01 0.01 0.01 0.00 0.00 0.00 0.00 0.00 0.00 0.00 0.00 0.00 0.00 0.00 0.00 0.00 0.00 0.00 0.00 0.18 0.19 0.38 0.38 0.18 0.03 0.03 0.01 0.00 0.01 0.05 0.08 0.10 0.08
0.05 0.04 0.05 0.04 0.04 0.03 0.03 0.02 0.00 0.00 0.00 0.01 0.01 0.01 0.00 0.00 0.00 0.00 0.01 0.01 0.04 0.00 0.00 0.00 0.01 0.17 0.36 0.16 0.23 0.17 0.02 0.08 0.04 0.06 0.12 0.08 0.06 0.11
0.26 0.15 0.12 0.06 0.03 0.02 0.01 0.02 0.01 0.01 0.00 0.00 0.02 0.02 0.01 0.00 0.00 0.00 0.02 0.06 0.10 0.02 0.00 0.00 0.00 0.01 0.06 0.11 0.27 0.05 0.01 0.01 0.04 0.12 0.19 0.18 0.11 0.24
0.31 0.18 0.11 0.07 0.04 0.03 0.03 0.03 0.03 0.02 0.02 0.01 0.02 0.03 0.05 0.03 0.04 0.02 0.02 0.06 0.07 0.02 0.02 0.00 0.01 0.07 0.03 0.01 0.06 0.13 0.13 0.02 0.01 0.06 0.16 0.49 0.20 0.10
0.30 0.09 0.06 0.07 0.07 0.07 0.08 0.07 0.04 0.03 0.04 0.05 0.04 0.04 0.08 0.08 0.04 0.04 0.03 0.05 0.04 0.02 0.01 0.01 0.11 0.33 0.44 0.10 0.00 0.02 0.36 0.25 0.06 0.06 0.14 0.28 0.35 0.19
0.15 0.09 0.04 0.04 0.10 0.13 0.11 0.14 0.12 0.10 0.09 0.06 0.06 0.09 0.12 0.14 0.08 0.07 0.06 0.12 0.15 0.11 0.06 0.01 0.05 0.25 0.72 0.49 0.38 0.04 0.04 0.35 0.49 0.34 0.15 0.12 0.28 0.21
0.06 0.11 0.06 0.05 0.11 0.17 0.19 0.19 0.19 0.17 0.14 0.16 0.10 0.08 0.10 0.21 0.13 0.06 0.08 0.08 0.15 0.18 0.15 0.02 0.00 0.05 0.22 0.44 0.39 0.03 0.00 0.03 0.30 0.75 0.62 0.47 0.13 0.07
0.06 0.13 0.15 0.14 0.20 0.23 0.24 0.21 0.20 0.15 0.12 0.09 0.09 0.10 0.12 0.19 0.26 0.19 0.12 0.18 0.10 0.08 0.10 0.03 0.00 0.04 0.17 0.45 0.26 0.07 0.02 0.00 0.01 0.05 0.27 0.87 0.96 0.77
0.17 0.21 0.23 0.24 0.25 0.27 0.29 0.25 0.17 0.12 0.11 0.12 0.11 0.12 0.17 0.24 0.15 0.17 0.15 0.12 0.14 0.19 0.12 0.10 0.03 0.05 0.12 0.19 0.25 0.18 0.08 0.02 0.01 0.02 0.03 0.09 0.19 0.30

GFSNE_prec_precacc_090.txt.gz
Total_Precipitation_Accumulation
0.33 0.31 0.27 0.30 0.33 0.25 0.26 0.34 0.58 0.56 0.39 0.31 0.31 0.30 0.30 0.35 0.45 0.46 0.50 0.65 0.79 0.89 0.90 0.93 0.79 0.79 0.71 0.67 0.66 0.44 0.41 0.40 0.38 0.46 0.59 0.69 0.83 0.99
0.35 0.42 0.42 0.38 0.35 0.29 0.32 0.39 0.41 0.63 0.81 0.71 0.68 0.66 0.65 0.65 0.72 0.67 0.72 0.83 0.77 0.75 0.77 0.62 0.53 0.46 0.39 0.38 0.37 0.36 0.35 0.39 0.44 0.50 0.58 0.75 1.00 1.07
0.53 0.60 0.67 0.67 0.75 0.67 0.71 0.82 0.91 1.01 1.13 1.03 0.92 0.85 0.81 0.79 0.76 0.62 0.50 0.40 0.39 0.47 0.39 0.34 0.27 0.21 0.19 0.17 0.16 0.16 0.18 0.23 0.31 0.38 0.49 0.55 0.61 0.69
0.36 0.44 0.45 0.47 0.56 0.59 0.51 0.57 0.73 0.90 1.06 1.05 0.95 0.87 0.75 0.60 0.45 0.32 0.27 0.25 0.23 0.30 0.23 0.14 0.12 0.12 0.12 0.13 0.13 0.12 0.11 0.13 0.16 0.18 0.19 0.22 0.25 0.30
0.35 0.39 0.41 0.41 0.45 0.44 0.45 0.50 0.59 0.65 0.66 0.56 0.45 0.38 0.35 0.34 0.35 0.31 0.27 0.20 0.14 0.16 0.11 0.09 0.08 0.08 0.08 0.07 0.06 0.06 0.06 0.04 0.04 0.03 0.05 0.10 0.21 0.21
0.13 0.15 0.22 0.30 0.41 0.58 0.72 0.78 0.68 0.52 0.42 0.33 0.29 0.22 0.17 0.13 0.10 0.10 0.07 0.04 0.02 0.01 0.01 0.00 0.00 0.00 0.00 0.00 0.00 0.00 0.00 0.00 0.00 0.01 0.02 0.04 0.10 0.23
0.26 0.30 0.36 0.46 0.51 0.48 0.36 0.28 0.24 0.21 0.19 0.21 0.18 0.12 0.07 0.04 0.04 0.03 0.03 0.02 0.00 0.00 0.00 0.00 0.00 0.00 0.00 0.00 0.00 0.00 0.00 0.01 0.01 0.03 0.05 0.08 0.12 0.23
0.34 0.37 0.41 0.48 0.38 0.33 0.24 0.16 0.11 0.17 0.16 0.11 0.08 0.03 0.01 0.00 0.00 0.01 0.03 0.06 0.05 0.00 0.00 0.00 0.00 0.00 0.00 0.00 0.00 0.00 0.00 0.01 0.01 0.02 0.06 0.10 0.11 0.13
0.25 0.23 0.20 0.18 0.16 0.12 0.13 0.11 0.15 0.10 0.05 0.02 0.01 0.00 0.00 0.01 0.06 0.08 0.07 0.09 0.04 0.00 0.01 0.00 0.00 0.00 0.00 0.00 0.00 0.00 0.00 0.00 0.01 0.02 0.04 0.07 0.08 0.09
0.15 0.13 0.09 0.04 0.03 0.03 0.05 0.10 0.05 0.02 0.00 0.00 0.00 0.00 0.02 0.03 0.07 0.13 0.05 0.03 0.01 0.00 0.00 0.01 0.00 0.00 0.00 0.00 0.00 0.00 0.00 0.00 0.01 0.02 0.04 0.05 0.07 0.08
0.07 0.02 0.01 0.00 0.02 0.03 0.04 0.02 0.00 0.00 0.00 0.00 0.01 0.01 0.01 0.01 0.00 0.01 0.02 0.04 0.03 0.00 0.00 0.00 0.00 0.00 0.00 0.00 0.00 0.00 0.00 0.00 0.00 0.01 0.01 0.02 0.04 0.05
0.00 0.00 0.01 0.01 0.02 0.05 0.03 0.01 0.00 0.00 0.03 0.02 0.00 0.00 0.00 0.00 0.00 0.00 0.01 0.12 0.09 0.11 0.00 0.10 0.04 0.03 0.15 0.01 0.00 0.00 0.00 0.00 0.00 0.00 0.01 0.01 0.03 0.06
0.00 0.00 0.00 0.01 0.03 0.04 0.02 0.00 0.00 0.01 0.01 0.00 0.00 0.00 0.00 0.00 0.00 0.00 0.00 0.10 0.24 0.18 0.00 0.29 0.34 0.04 0.23 0.07 0.00 0.00 0.00 0.00 0.00 0.00 0.00 0.01 0.04 0.10
0.02 0.01 0.01 0.03 0.03 0.01 0.02 0.01 0.01 0.01 0.00 0.00 0.00 0.00 0.00 0.00 0.00 0.00 0.00 0.00 0.04 0.14 0.03 0.12 0.57 0.16 0.35 0.21 0.02 0.00 0.00 0.00 0.00 0.02 0.01 0.02 0.04 0.05
0.02 0.03 0.04 0.04 0.04 0.02 0.03 0.02 0.00 0.00 0.00 0.00 0.00 0.00 0.00 0.00 0.00 0.00 0.00 0.00 0.00 0.00 0.00 0.00 0.18 0.19 0.38 0.38 0.18 0.03 0.03 0.01 0.00 0.01 0.05 0.08 0.10 0.08
0.06 0.06 0.08 0.07 0.08 0.07 0.07 0.05 0.02 0.00 0.00 0.01 0.01 0.01 0.00 0.00 0.00 0.00 0.01 0.01 0.04 0.00 0.00 0.00 0.01 0.17 0.36 0.16 0.23 0.17 0.02 0.08 0.04 0.06 0.12 0.08 0.06 0.11
0.27 0.16 0.15 0.10 0.08 0.08 0.06 0.05 0.06 0.03 0.02 0.01 0.02 0.02 0.01 0.00 0.00 0.00 0.02 0.06 0.10 0.02 0.00 0.00 0.00 0.01 0.06 0.11 0.27 0.05 0.01 0.01 0.04 0.12 0.19 0.18 0.11 0.24
0.32 0.19 0.12 0.09 0.07 0.08 0.10 0.11 0.10 0.07 0.06 0.07 0.07 0.07 0.05 0.03 0.04 0.02 0.02 0.06 0.07 0.02 0.02 0.00 0.01 0.07 0.03 0.01 0.06 0.13 0.13 0.02 0.01 0.06 0.16 0.49 0.20 0.10
0.31 0.10 0.07 0.08 0.09 0.12 0.15 0.15 0.13 0.09 0.09 0.16 0.18 0.14 0.12 0.09 0.04 0.04 0.03 0.05 0.04 0.02 0.01 0.01 0.11 0.33 0.44 0.10 0.00 0.02 0.36 0.25 0.06 0.06 0.14 0.28 0.35 0.19
0.16 0.09 0.05 0.06 0.12 0.16 0.18 0.21 0.20 0.20 0.21 0.16 0.16 0.15 0.17 0.17 0.08 0.07 0.06 0.12 0.15 0.11 0.06 0.01 0.05 0.25 0.72 0.49 0.38 0.04 0.04 0.35 0.49 0.34 0.15 0.12 0.28 0.21
0.06 0.11 0.07 0.07 0.14 0.20 0.24 0.27 0.29 0.26 0.25 0.28 0.20 0.15 0.14 0.24 0.14 0.07 0.10 0.08 0.15 0.18 0.15 0.02 0.00 0.05 0.22 0.44 0.39 0.03 0.00 0.03 0.30 0.75 0.62 0.47 0.13 0.07
0.06 0.14 0.16 0.15 0.21 0.25 0.29 0.29 0.29 0.23 0.20 0.18 0.16 0.16 0.18 0.23 0.28 0.21 0.14 0.19 0.10 0.08 0.10 0.03 0.00 0.04 0.17 0.45 0.26 0.07 0.02 0.00 0.01 0.05 0.27 0.87 0.96 0.77
0.17 0.21 0.23 0.25 0.26 0.28 0.33 0.31 0.24 0.16 0.13 0.14 0.16 0.16 0.21 0.30 0.18 0.18 0.16 0.13 0.14 0.19 0.12 0.10 0.03 0.05 0.12 0.19 0.25 0.18 0.08 0.02 0.01 0.02 0.03 0.09 0.19 0.30

GFSNE_prec_precacc_093.txt.gz
Total_Precipitation_Accumulation
0.39 0.35 0.31 0.33 0.40 0.37 0.37 0.49 0.77 0.82 0.65 0.51 0.45 0.41 0.34 0.37 0.45 0.46 0.50 0.65 0.79 0.89 0.90 0.93 0.79 0.80 0.72 0.67 0.66 0.44 0.41 0.40 0.38 0.46 0.59 0.70 0.84 1.00
0.41 0.48 0.47 0.41 0.39 0.36 0.39 0.46 0.46 0.66 0.83 0.72 0.70 0.71 0.71 0.69 0.72 0.67 0.72 0.83 0.77 0.75 0.77 0.62 0.53 0.46 0.39 0.38 0.37 0.36 0.35 0.39 0.44 0.50 0.58 0.75 1.01 1.08
0.59 0.66 0.71 0.71 0.79 0.80 0.84 0.92 1.01 1.05 1.14 1.03 0.92 0.85 0.82 0.79 0.76 0.62 0.50 0.40 0.39 0.47 0.39 0.34 0.27 0.21 0.19 0.17 0.16 0.16 0.18 0.23 0.31 0.38 0.49 0.55 0.61 0.69
0.36 0.45 0.48 0.51 0.59 0.64 0.67 0.69 0.87 1.12 1.23 1.09 0.96 0.87 0.75 0.60 0.45 0.32 0.27 0.25 0.23 0.30 0.23 0.14 0.12 0.12 0.12 0.13 0.13 0.12 0.11 0.13 0.16 0.18 0.19 0.22 0.25 0.30
0.35 0.39 0.42 0.43 0.47 0.47 0.50 0.61 0.70 0.73 0.72 0.60 0.48 0.38 0.35 0.34 0.35 0.31 0.27 0.20 0.14 0.16 0.11 0.09 0.08 0.08 0.08 0.07 0.06 0.06 0.06 0.04 0.04 0.03 0.05 0.10 0.21 0.21
0.13 0.15 0.22 0.31 0.42 0.61 0.84 0.94 0.87 0.67 0.47 0.33 0.29 0.22 0.17 0.13 0.10 0.10 0.07 0.04 0.02 0.01 0.01 0.00 0.00 0.00 0.00 0.00 0.00 0.00 0.00 0.00 0.00 0.01 0.02 0.04 0.10 0.23
0.26 0.31 0.37 0.48 0.54 0.51 0.43 0.35 0.34 0.32 0.24 0.22 0.18 0.12 0.07 0.04 0.04 0.03 0.03 0.02 0.00 0.00 0.00 0.00 0.00 0.00 0.00 0.00 0.00 0.00 0.00 0.01 0.01 0.03 0.05 0.08 0.12 0.23
0.34 0.37 0.41 0.50 0.40 0.38 0.28 0.21 0.16 0.19 0.17 0.11 0.08 0.03 0.01 0.00 0.00 0.01 0.03 0.06 0.05 0.00 0.00 0.00 0.00 0.00 0.00 0.00 0.00 0.00 0.00 0.01 0.01 0.02 0.06 0.10 0.11 0.13
0.25 0.23 0.20 0.19 0.17 0.13 0.17 0.17 0.20 0.13 0.07 0.03 0.02 0.00 0.00 0.01 0.06 0.08 0.07 0.09 0.04 0.00 0.01 0.00 0.00 0.00 0.00 0.00 0.00 0.00 0.00 0.00 0.01 0.02 0.04 0.07 0.08 0.09
0.15 0.13 0.09 0.04 0.03 0.03 0.05 0.10 0.07 0.07 0.08 0.07 0.07 0.06 0.05 0.03 0.07 0.13 0.05 0.03 0.01 0.00 0.00 0.01 0.00 0.00 0.00 0.00 0.00 0.00 0.00 0.00 0.01 0.02 0.04 0.05 0.07 0.08
0.07 0.02 0.01 0.00 0.02 0.03 0.04 0.02 0.00 0.00 0.00 0.02 0.04 0.06 0.06 0.04 0.00 0.01 0.02 0.04 0.03 0.00 0.00 0.00 0.00 0.00 0.00 0.00 0.00 0.00 0.00 0.00 0.00 0.01 0.01 0.02 0.04 0.05
0.00 0.00 0.02 0.01 0.02 0.05 0.03 0.01 0.00 0.00 0.03 0.02 0.01 0.00 0.00 0.00 0.00 0.00 0.01 0.12 0.09 0.11 0.00 0.10 0.04 0.03 0.15 0.01 0.00 0.00 0.00 0.00 0.00 0.00 0.01 0.01 0.03 0.06
0.01 0.00 0.00 0.02 0.04 0.04 0.03 0.00 0.00 0.01 0.01 0.00 0.00 0.00 0.00 0.00 0.00 0.00 0.00 0.10 0.24 0.18 0.00 0.29 0.34 0.04 0.23 0.07 0.00 0.00 0.00 0.00 0.00 0.00 0.00 0.01 0.04 0.10
0.02 0.02 0.01 0.04 0.04 0.02 0.03 0.01 0.02 0.01 0.00 0.00 0.00 0.00 0.00 0.00 0.00 0.00 0.00 0.00 0.04 0.14 0.03 0.12 0.57 0.16 0.35 0.21 0.02 0.00 0.00 0.00 0.00 0.02 0.01 0.02 0.04 0.05
0.02 0.04 0.05 0.04 0.05 0.03 0.04 0.05 0.03 0.02 0.00 0.01 0.00 0.00 0.00 0.00 0.00 0.00 0.00 0.00 0.00 0.00 0.00 0.00 0.18 0.19 0.38 0.38 0.18 0.03 0.03 0.01 0.00 0.01 0.05 0.08 0.10 0.08
0.06 0.06 0.08 0.07 0.08 0.08 0.09 0.09 0.06 0.03 0.02 0.01 0.01 0.01 0.00 0.00 0.00 0.00 0.01 0.01 0.04 0.00 0.00 0.00 0.01 0.17 0.36 0.16 0.23 0.17 0.02 0.08 0.04 0.06 0.12 0.08 0.06 0.11
0.28 0.16 0.15 0.10 0.09 0.10 0.09 0.10 0.13 0.09 0.07 0.04 0.05 0.05 0.03 0.01 0.00 0.00 0.02 0.06 0.10 0.02 0.00 0.00 0.00 0.01 0.06 0.11 0.27 0.05 0.01 0.01 0.04 0.12 0.19 0.18 0.11 0.24
0.32 0.19 0.12 0.09 0.08 0.08 0.11 0.16 0.18 0.15 0.13 0.14 0.13 0.13 0.13 0.09 0.07 0.03 0.02 0.06 0.07 0.02 0.02 0.00 0.01 0.07 0.03 0.01 0.06 0.13 0.13 0.02 0.01 0.06 0.16 0.49 0.20 0.10
0.31 0.10 0.07 0.08 0.10 0.12 0.15 0.17 0.17 0.14 0.16 0.22 0.28 0.26 0.24 0.19 0.12 0.09 0.04 0.05 0.04 0.02 0.01 0.01 0.11 0.33 0.44 0.10 0.00 0.02 0.36 0.25 0.06 0.06 0.14 0.28 0.35 0.19
0.16 0.09 0.05 0.07 0.13 0.17 0.18 0.22 0.24 0.24 0.27 0.24 0.23 0.24 0.29 0.29 0.17 0.12 0.08 0.12 0.16 0.12 0.07 0.01 0.05 0.25 0.72 0.49 0.38 0.04 0.04 0.35 0.49 0.34 0.15 0.12 0.28 0.21
0.06 0.11 0.07 0.07 0.14 0.20 0.25 0.28 0.32 0.32 0.30 0.33 0.28 0.23 0.20 0.32 0.22 0.12 0.13 0.09 0.16 0.19 0.15 0.02 0.01 0.05 0.22 0.44 0.39 0.03 0.00 0.03 0.30 0.75 0.62 0.47 0.13 0.07
0.06 0.14 0.16 0.15 0.21 0.25 0.29 0.30 0.31 0.29 0.27 0.24 0.23 0.23 0.25 0.28 0.33 0.24 0.18 0.24 0.14 0.10 0.10 0.04 0.01 0.04 0.17 0.45 0.26 0.07 0.02 0.00 0.01 0.05 0.27 0.87 0.96 0.77
0.17 0.22 0.23 0.25 0.27 0.29 0.34 0.33 0.27 0.20 0.18 0.19 0.21 0.21 0.27 0.36 0.22 0.22 0.19 0.16 0.17 0.23 0.15 0.12 0.04 0.05 0.12 0.19 0.25 0.18 0.08 0.02 0.01 0.02 0.03 0.09 0.19 0.30

GFSNE_prec_precacc_099.txt.gz
Total_Precipitation_Accumulation
0.79 0.74 0.68 0.62 0.64 0.62 0.64 0.78 1.11 1.08 0.77 0.60 0.52 0.49 0.48 0.57 0.73 0.69 0.62 0.80 0.88 0.92 0.92 0.93 0.79 0.80 0.72 0.67 0.66 0.44 0.41 0.40 0.38 0.46 0.59 0.70 0.84 1.00
0.71 0.78 0.78 0.71 0.70 0.65 0.65 0.72 0.76 0.98 1.10 0.84 0.78 0.78 0.85 0.93 1.11 1.05 1.02 1.07 0.88 0.81 0.80 0.63 0.53 0.46 0.39 0.38 0.37 0.36 0.35 0.39 0.44 0.50 0.58 0.75 1.01 1.08
1.11 1.18 1.21 1.25 1.31 1.25 1.26 1.39 1.50 1.53 1.58 1.23 1.00 0.91 0.86 0.87 0.89 0.77 0.74 0.55 0.47 0.52 0.43 0.36 0.27 0.21 0.19 0.17 0.16 0.16 0.18 0.23 0.31 0.38 0.49 0.55 0.62 0.69
0.47 0.59 0.64 0.73 0.85 0.91 0.98 0.99 1.17 1.49 1.78 1.52 1.22 1.04 0.85 0.67 0.51 0.38 0.33 0.31 0.27 0.33 0.25 0.15 0.13 0.12 0.12 0.13 0.13 0.12 0.11 0.13 0.16 0.18 0.19 0.22 0.25 0.30
0.36 0.41 0.44 0.46 0.50 0.51 0.56 0.68 0.78 0.88 1.02 0.99 0.84 0.73 0.63 0.59 0.57 0.49 0.39 0.26 0.16 0.17 0.11 0.09 0.08 0.08 0.08 0.07 0.06 0.06 0.06 0.04 0.04 0.03 0.05 0.10 0.21 0.21
0.13 0.15 0.22 0.31 0.43 0.62 0.85 0.96 0.91 0.78 0.66 0.56 0.52 0.44 0.37 0.35 0.35 0.32 0.27 0.14 0.04 0.02 0.01 0.00 0.00 0.00 0.00 0.00 0.00 0.00 0.00 0.00 0.00 0.01 0.02 0.04 0.10 0.23
0.26 0.31 0.37 0.49 0.57 0.53 0.45 0.36 0.36 0.40 0.42 0.46 0.40 0.30 0.25 0.21 0.21 0.20 0.19 0.13 0.06 0.01 0.00 0.00 0.00 0.00 0.00 0.00 0.00 0.00 0.00 0.01 0.01 0.03 0.05 0.08 0.12 0.23
0.34 0.37 0.41 0.50 0.40 0.39 0.30 0.26 0.21 0.26 0.24 0.19 0.15 0.10 0.08 0.10 0.13 0.16 0.21 0.21 0.13 0.02 0.01 0.00 0.00 0.00 0.00 0.00 0.00 0.00 0.00 0.01 0.01 0.02 0.06 0.10 0.11 0.13
0.25 0.23 0.20 0.19 0.17 0.13 0.19 0.21 0.25 0.23 0.16 0.09 0.06 0.04 0.05 0.06 0.13 0.17 0.14 0.14 0.08 0.02 0.02 0.00 0.00 0.00 0.00 0.00 0.00 0.00 0.00 0.00 0.01 0.02 0.04 0.07 0.08 0.09
0.15 0.13 0.09 0.04 0.03 0.03 0.05 0.11 0.08 0.11 0.16 0.17 0.14 0.13 0.16 0.17 0.21 0.23 0.08 0.04 0.03 0.01 0.00 0.01 0.00 0.00 0.00 0.00 0.00 0.00 0.00 0.00 0.01 0.02 0.04 0.05 0.07 0.08
0.07 0.02 0.01 0.00 0.03 0.03 0.04 0.02 0.00 0.01 0.09 0.17 0.24 0.30 0.34 0.35 0.26 0.21 0.22 0.19 0.12 0.02 0.01 0.01 0.00 0.00 0.00 0.00 0.00 0.00 0.00 0.00 0.00 0.01 0.02 0.02 0.04 0.05
0.00 0.00 0.02 0.01 0.03 0.05 0.04 0.01 0.00 0.00 0.04 0.05 0.08 0.13 0.19 0.21 0.20 0.12 0.11 0.24 0.22 0.26 0.12 0.18 0.06 0.03 0.15 0.01 0.00 0.00 0.00 0.00 0.00 0.00 0.01 0.01 0.03 0.06
0.01 0.00 0.00 0.02 0.05 0.05 0.04 0.01 0.02 0.03 0.02 0.03 0.04 0.09 0.13 0.15 0.11 0.08 0.07 0.17 0.30 0.24 0.07 0.38 0.38 0.05 0.23 0.07 0.00 0.00 0.00 0.00 0.00 0.00 0.00 0.01 0.04 0.10
0.02 0.02 0.01 0.05 0.04 0.03 0.04 0.04 0.05 0.06 0.02 0.01 0.02 0.06 0.11 0.14 0.11 0.07 0.06 0.08 0.09 0.16 0.03 0.13 0.58 0.16 0.35 0.21 0.02 0.00 0.00 0.00 0.00 0.02 0.01 0.02 0.04 0.05
0.02 0.04 0.05 0.05 0.05 0.04 0.05 0.07 0.06 0.05 0.02 0.03 0.03 0.04 0.06 0.09 0.15 0.17 0.14 0.05 0.03 0.02 0.01 0.00 0.18 0.19 0.38 0.38 0.18 0.03 0.03 0.01 0.00 0.01 0.05 0.08 0.10 0.08
0.06 0.06 0.08 0.07 0.08 0.08 0.10 0.10 0.08 0.07 0.06 0.06 0.05 0.05 0.07 0.12 0.15 0.17 0.13 0.05 0.07 0.01 0.00 0.00 0.01 0.17 0.36 0.16 0.23 0.17 0.02 0.08 0.04 0.06 0.12 0.08 0.06 0.11
0.28 0.17 0.15 0.10 0.09 0.10 0.09 0.10 0.15 0.15 0.15 0.12 0.14 0.14 0.15 0.15 0.13 0.10 0.14 0.14 0.15 0.05 0.01 0.00 0.00 0.01 0.06 0.11 0.27 0.05 0.01 0.01 0.04 0.12 0.19 0.18 0.11 0.24
0.33 0.19 0.12 0.10 0.08 0.08 0.12 0.16 0.20 0.24 0.23 0.25 0.25 0.23 0.27 0.24 0.22 0.20 0.15 0.16 0.14 0.05 0.05 0.02 0.02 0.07 0.03 0.01 0.06 0.13 0.13 0.02 0.01 0.06 0.16 0.49 0.20 0.10
0.32 0.11 0.08 0.09 0.10 0.12 0.16 0.18 0.18 0.17 0.25 0.35 0.41 0.39 0.39 0.35 0.33 0.28 0.21 0.19 0.16 0.11 0.09 0.07 0.14 0.34 0.44 0.10 0.00 0.02 0.36 0.25 0.06 0.06 0.14 0.28 0.35 0.19
0.16 0.09 0.06 0.07 0.13 0.17 0.19 0.23 0.24 0.27 0.32 0.33 0.38 0.39 0.45 0.46 0.32 0.22 0.19 0.22 0.23 0.17 0.12 0.06 0.07 0.26 0.72 0.49 0.38 0.04 0.04 0.35 0.49 0.34 0.15 0.12 0.28 0.21
0.06 0.11 0.07 0.07 0.15 0.21 0.26 0.29 0.33 0.34 0.34 0.39 0.36 0.34 0.33 0.48 0.37 0.20 0.20 0.16 0.22 0.26 0.19 0.03 0.01 0.06 0.22 0.44 0.39 0.03 0.00 0.03 0.30 0.75 0.62 0.47 0.13 0.07
0.06 0.14 0.16 0.15 0.21 0.26 0.30 0.30 0.31 0.31 0.29 0.29 0.28 0.30 0.34 0.43 0.46 0.34 0.27 0.35 0.21 0.13 0.12 0.08 0.06 0.06 0.17 0.45 0.26 0.07 0.02 0.00 0.01 0.05 0.27 0.87 0.96 0.77
0.19 0.23 0.24 0.26 0.27 0.30 0.35 0.34 0.27 0.21 0.20 0.23 0.28 0.29 0.35 0.47 0.34 0.31 0.30 0.28 0.24 0.31 0.24 0.19 0.08 0.06 0.12 0.19 0.26 0.19 0.08 0.02 0.01 0.02 0.03 0.09 0.19 0.30

GFSNE_prec_precacc_105.txt.gz
Total_Precipitation_Accumulation
1.12 1.04 0.93 0.78 0.79 0.80 0.86 1.06 1.49 1.52 1.04 0.67 0.58 0.54 0.56 0.63 0.77 0.73 0.65 0.83 0.91 0.95 0.96 1.00 0.89 0.90 0.81 0.76 0.76 0.57 0.45 0.41 0.38 0.46 0.59 0.70 0.84 1.00
1.17 1.15 1.09 0.98 0.94 0.89 0.90 0.97 1.06 1.34 1.38 0.89 0.80 0.83 0.97 1.04 1.18 1.09 1.06 1.20 0.98 0.89 0.87 0.69 0.60 0.52 0.46 0.44 0.41 0.40 0.38 0.40 0.44 0.50 0.58 0.75 1.01 1.08
1.47 1.69 1.75 1.82 1.93 1.84 1.80 1.86 1.91 1.90 2.01 1.45 1.14 1.06 1.03 1.03 1.02 0.88 0.82 0.64 0.58 0.69 0.55 0.45 0.34 0.28 0.27 0.26 0.24 0.20 0.19 0.23 0.31 0.38 0.49 0.55 0.62 0.69
0.55 0.71 0.78 0.94 1.18 1.37 1.56 1.64 1.88 2.23 2.60 2.04 1.44 1.19 1.00 0.78 0.62 0.47 0.41 0.43 0.45 0.60 0.47 0.36 0.29 0.21 0.20 0.20 0.16 0.13 0.12 0.13 0.16 0.18 0.19 0.22 0.25 0.30
0.36 0.41 0.44 0.47 0.54 0.58 0.68 0.85 0.98 1.09 1.28 1.22 0.94 0.80 0.71 0.69 0.72 0.65 0.52 0.39 0.33 0.44 0.33 0.30 0.33 0.34 0.26 0.14 0.08 0.07 0.06 0.04 0.04 0.03 0.05 0.10 0.21 0.21
0.13 0.15 0.22 0.31 0.43 0.62 0.86 0.96 0.91 0.79 0.70 0.62 0.56 0.46 0.39 0.38 0.42 0.43 0.40 0.31 0.23 0.21 0.20 0.14 0.13 0.10 0.08 0.05 0.01 0.00 0.00 0.00 0.00 0.01 0.02 0.04 0.10 0.23
0.26 0.31 0.37 0.49 0.57 0.53 0.45 0.36 0.37 0.41 0.43 0.47 0.42 0.33 0.28 0.25 0.24 0.23 0.24 0.25 0.28 0.22 0.16 0.11 0.07 0.04 0.01 0.01 0.00 0.00 0.00 0.01 0.01 0.03 0.05 0.08 0.12 0.23
0.34 0.37 0.41 0.50 0.40 0.39 0.30 0.26 0.22 0.26 0.25 0.20 0.16 0.11 0.09 0.11 0.15 0.22 0.32 0.42 0.41 0.22 0.17 0.16 0.10 0.04 0.01 0.00 0.00 0.00 0.00 0.01 0.01 0.02 0.06 0.10 0.11 0.13
0.25 0.23 0.20 0.19 0.17 0.13 0.19 0.21 0.25 0.23 0.18 0.12 0.08 0.06 0.06 0.07 0.14 0.18 0.17 0.18 0.13 0.09 0.20 0.25 0.19 0.14 0.06 0.02 0.00 0.00 0.00 0.00 0.01 0.02 0.04 0.07 0.08 0.09
0.15 0.13 0.09 0.04 0.03 0.03 0.05 0.11 0.08 0.11 0.16 0.18 0.16 0.16 0.19 0.21 0.24 0.27 0.14 0.10 0.09 0.08 0.13 0.19 0.13 0.13 0.08 0.06 0.04 0.01 0.00 0.00 0.01 0.02 0.04 0.05 0.07 0.08
0.07 0.02 0.01 0.00 0.03 0.03 0.04 0.02 0.00 0.01 0.09 0.17 0.26 0.36 0.43 0.43 0.33 0.29 0.34 0.34 0.26 0.12 0.08 0.08 0.07 0.12 0.10 0.06 0.03 0.01 0.00 0.01 0.00 0.01 0.02 0.02 0.04 0.05
0.00 0.00 0.02 0.01 0.03 0.05 0.04 0.01 0.00 0.01 0.05 0.05 0.08 0.16 0.26 0.32 0.36 0.23 0.16 0.31 0.32 0.38 0.26 0.32 0.17 0.13 0.26 0.09 0.06 0.03 0.01 0.01 0.00 0.00 0.01 0.01 0.03 0.06
0.01 0.00 0.00 0.02 0.05 0.05 0.04 0.01 0.02 0.03 0.03 0.03 0.04 0.10 0.17 0.27 0.31 0.31 0.29 0.38 0.45 0.31 0.11 0.48 0.56 0.28 0.44 0.15 0.04 0.03 0.01 0.00 0.00 0.00 0.00 0.01 0.04 0.10
0.02 0.02 0.01 0.05 0.04 0.03 0.04 0.04 0.05 0.06 0.02 0.01 0.03 0.06 0.13 0.19 0.25 0.30 0.38 0.47 0.48 0.49 0.26 0.31 0.72 0.31 0.52 0.36 0.13 0.06 0.03 0.01 0.00 0.02 0.01 0.02 0.04 0.05
0.03 0.05 0.05 0.05 0.05 0.04 0.05 0.07 0.06 0.05 0.02 0.03 0.03 0.05 0.07 0.11 0.21 0.36 0.47 0.50 0.57 0.59 0.53 0.50 0.58 0.47 0.60 0.55 0.29 0.12 0.15 0.10 0.02 0.01 0.05 0.08 0.10 0.08
0.07 0.07 0.09 0.08 0.10 0.09 0.10 0.10 0.08 0.07 0.07 0.07 0.06 0.06 0.09 0.14 0.21 0.29 0.38 0.40 0.47 0.45 0.50 0.52 0.47 0.61 0.75 0.51 0.49 0.31 0.11 0.17 0.11 0.09 0.12 0.08 0.06 0.11
0.29 0.19 0.16 0.11 0.10 0.10 0.10 0.11 0.15 0.15 0.16 0.13 0.16 0.17 0.16 0.18 0.19 0.18 0.27 0.38 0.50 0.42 0.37 0.38 0.45 0.46 0.45 0.41 0.56 0.30 0.11 0.04 0.06 0.14 0.19 0.18 0.11 0.24
0.35 0.23 0.15 0.12 0.10 0.10 0.13 0.17 0.21 0.24 0.23 0.26 0.27 0.29 0.32 0.30 0.28 0.29 0.29 0.32 0.38 0.34 0.40 0.43 0.39 0.50 0.48 0.37 0.31 0.36 0.31 0.09 0.02 0.06 0.16 0.49 0.20 0.10
0.36 0.14 0.10 0.10 0.11 0.13 0.16 0.19 0.19 0.17 0.25 0.36 0.43 0.42 0.46 0.47 0.48 0.39 0.34 0.37 0.35 0.35 0.41 0.44 0.54 0.70 0.79 0.39 0.21 0.19 0.52 0.37 0.09 0.07 0.14 0.28 0.35 0.19
0.17 0.10 0.07 0.08 0.14 0.19 0.20 0.24 0.25 0.27 0.32 0.34 0.39 0.42 0.51 0.57 0.48 0.37 0.32 0.36 0.38 0.36 0.37 0.41 0.42 0.53 0.92 0.65 0.56 0.22 0.19 0.48 0.57 0.35 0.15 0.12 0.28 0.21
0.07 0.13 0.08 0.08 0.16 0.22 0.27 0.30 0.34 0.35 0.34 0.39 0.37 0.36 0.38 0.59 0.49 0.34 0.37 0.32 0.35 0.40 0.38 0.24 0.17 0.27 0.43 0.63 0.63 0.24 0.15 0.11 0.34 0.76 0.62 0.47 0.13 0.07
0.09 0.16 0.18 0.18 0.23 0.28 0.31 0.32 0.33 0.32 0.31 0.30 0.29 0.30 0.36 0.48 0.56 0.47 0.43 0.52 0.35 0.23 0.26 0.27 0.36 0.36 0.41 0.62 0.35 0.13 0.09 0.05 0.02 0.05 0.27 0.87 0.96 0.77
0.23 0.27 0.27 0.29 0.30 0.33 0.37 0.36 0.30 0.24 0.22 0.24 0.29 0.31 0.38 0.51 0.40 0.40 0.44 0.43 0.38 0.46 0.38 0.38 0.35 0.31 0.30 0.28 0.31 0.25 0.13 0.06 0.02 0.02 0.03 0.09 0.19 0.30

GFSNE_prec_precacc_108.txt.gz
Total_Precipitation_Accumulation
1.33 1.23 1.14 1.00 1.06 1.09 1.12 1.28 1.71 1.69 1.11 0.69 0.59 0.55 0.57 0.64 0.78 0.74 0.67 0.84 0.92 0.95 0.97 1.02 0.90 0.92 0.87 0.89 0.99 0.87 0.80 0.57 0.39 0.46 0.59 0.70 0.84 1.00
1.30 1.32 1.28 1.15 1.11 1.05 1.03 1.09 1.18 1.47 1.46 0.90 0.80 0.84 1.00 1.10 1.21 1.12 1.07 1.20 0.98 0.89 0.88 0.69 0.60 0.52 0.48 0.49 0.53 0.55 0.60 0.64 0.50 0.52 0.59 0.75 1.01 1.08
1.56 1.78 1.86 1.93 2.06 2.01 2.04 2.15 2.21 2.21 2.21 1.49 1.16 1.08 1.07 1.08 1.06 0.93 0.85 0.65 0.59 0.70 0.56 0.46 0.34 0.29 0.29 0.31 0.35 0.36 0.38 0.41 0.38 0.40 0.50 0.55 0.62 0.69
0.55 0.71 0.79 0.95 1.21 1.41 1.63 1.76 2.05 2.44 2.83 2.22 1.57 1.35 1.13 0.90 0.71 0.53 0.45 0.47 0.47 0.62 0.51 0.39 0.31 0.22 0.22 0.25 0.25 0.27 0.28 0.27 0.22 0.20 0.20 0.22 0.25 0.30
0.36 0.41 0.44 0.47 0.54 0.58 0.69 0.87 1.02 1.15 1.37 1.33 1.03 0.90 0.86 0.87 0.88 0.74 0.56 0.42 0.34 0.45 0.35 0.31 0.34 0.37 0.32 0.22 0.19 0.19 0.18 0.13 0.07 0.03 0.05 0.10 0.21 0.21
0.13 0.15 0.22 0.31 0.43 0.62 0.86 0.96 0.92 0.80 0.72 0.65 0.58 0.49 0.44 0.44 0.48 0.47 0.42 0.31 0.23 0.22 0.21 0.15 0.15 0.14 0.16 0.20 0.16 0.11 0.09 0.08 0.04 0.01 0.02 0.04 0.10 0.23
0.26 0.31 0.37 0.49 0.57 0.53 0.45 0.36 0.37 0.41 0.43 0.47 0.42 0.33 0.28 0.25 0.24 0.23 0.24 0.25 0.28 0.23 0.18 0.12 0.08 0.07 0.06 0.10 0.12 0.10 0.07 0.05 0.02 0.03 0.05 0.08 0.12 0.23
0.34 0.37 0.41 0.50 0.40 0.39 0.30 0.26 0.22 0.26 0.25 0.21 0.16 0.12 0.09 0.11 0.15 0.22 0.32 0.43 0.41 0.23 0.20 0.19 0.13 0.08 0.02 0.01 0.02 0.02 0.01 0.01 0.01 0.02 0.06 0.10 0.11 0.13
0.25 0.23 0.20 0.19 0.17 0.13 0.19 0.21 0.25 0.23 0.18 0.12 0.08 0.06 0.07 0.07 0.15 0.19 0.17 0.19 0.14 0.09 0.21 0.28 0.25 0.22 0.12 0.07 0.04 0.01 0.01 0.01 0.01 0.02 0.04 0.07 0.08 0.09
0.15 0.13 0.09 0.04 0.03 0.03 0.05 0.11 0.08 0.11 0.16 0.18 0.16 0.16 0.19 0.21 0.24 0.28 0.14 0.11 0.10 0.08 0.14 0.21 0.16 0.21 0.18 0.18 0.19 0.08 0.05 0.02 0.01 0.02 0.04 0.05 0.07 0.08
0.07 0.02 0.01 0.00 0.03 0.03 0.04 0.02 0.00 0.01 0.09 0.17 0.26 0.36 0.43 0.43 0.33 0.29 0.34 0.34 0.26 0.13 0.09 0.09 0.08 0.14 0.16 0.16 0.18 0.23 0.18 0.10 0.03 0.01 0.02 0.02 0.04 0.05
0.00 0.00 0.02 0.01 0.03 0.05 0.04 0.01 0.00 0.01 0.05 0.05 0.08 0.16 0.26 0.32 0.36 0.23 0.17 0.31 0.33 0.40 0.27 0.33 0.18 0.13 0.27 0.13 0.15 0.20 0.19 0.17 0.10 0.04 0.02 0.02 0.03 0.06
0.01 0.00 0.00 0.02 0.05 0.05 0.04 0.01 0.02 0.03 0.03 0.03 0.04 0.10 0.17 0.27 0.31 0.31 0.30 0.39 0.46 0.32 0.13 0.50 0.57 0.30 0.46 0.17 0.06 0.11 0.10 0.11 0.11 0.06 0.02 0.01 0.04 0.10
0.02 0.02 0.01 0.05 0.05 0.03 0.04 0.04 0.06 0.06 0.02 0.01 0.03 0.06 0.13 0.19 0.25 0.30 0.38 0.47 0.49 0.50 0.27 0.34 0.72 0.31 0.54 0.38 0.16 0.11 0.12 0.11 0.10 0.08 0.05 0.04 0.05 0.05
0.03 0.05 0.06 0.05 0.05 0.04 0.05 0.07 0.07 0.05 0.02 0.03 0.03 0.05 0.07 0.12 0.21 0.36 0.47 0.50 0.57 0.59 0.54 0.53 0.61 0.48 0.62 0.58 0.31 0.14 0.20 0.19 0.13 0.11 0.13 0.13 0.11 0.08
0.07 0.07 0.10 0.09 0.10 0.09 0.10 0.10 0.08 0.07 0.07 0.07 0.06 0.06 0.09 0.15 0.21 0.29 0.38 0.40 0.48 0.45 0.51 0.53 0.51 0.65 0.79 0.53 0.51 0.35 0.19 0.29 0.29 0.25 0.27 0.20 0.14 0.14
0.30 0.19 0.16 0.11 0.10 0.10 0.10 0.11 0.16 0.16 0.16 0.13 0.16 0.17 0.17 0.18 0.19 0.18 0.28 0.39 0.50 0.42 0.37 0.39 0.47 0.51 0.53 0.49 0.62 0.39 0.26 0.19 0.21 0.34 0.42 0.39 0.25 0.30
0.36 0.23 0.15 0.12 0.11 0.11 0.14 0.18 0.21 0.25 0.24 0.26 0.28 0.29 0.32 0.30 0.28 0.29 0.30 0.33 0.40 0.34 0.41 0.44 0.44 0.58 0.60 0.51 0.45 0.47 0.46 0.26 0.17 0.17 0.31 0.67 0.34 0.17
0.37 0.14 0.10 0.11 0.12 0.14 0.17 0.19 0.19 0.17 0.25 0.36 0.43 0.43 0.47 0.47 0.48 0.40 0.35 0.39 0.37 0.36 0.42 0.47 0.60 0.81 0.92 0.51 0.34 0.34 0.67 0.57 0.31 0.23 0.27 0.39 0.44 0.25
0.18 0.11 0.07 0.08 0.14 0.19 0.20 0.25 0.26 0.28 0.33 0.34 0.40 0.43 0.51 0.58 0.49 0.38 0.34 0.39 0.41 0.37 0.39 0.43 0.49 0.64 1.04 0.74 0.66 0.38 0.37 0.72 0.82 0.55 0.31 0.24 0.35 0.25
0.07 0.13 0.09 0.10 0.17 0.23 0.28 0.31 0.36 0.37 0.35 0.41 0.37 0.36 0.38 0.59 0.50 0.35 0.39 0.34 0.38 0.42 0.39 0.26 0.22 0.40 0.64 0.86 0.92 0.54 0.46 0.42 0.62 0.99 0.77 0.58 0.21 0.10
0.09 0.17 0.19 0.18 0.24 0.28 0.32 0.34 0.37 0.34 0.31 0.31 0.29 0.31 0.36 0.48 0.58 0.50 0.44 0.54 0.36 0.25 0.27 0.30 0.46 0.52 0.62 0.86 0.57 0.31 0.31 0.29 0.27 0.25 0.43 0.96 1.01 0.78
0.23 0.27 0.27 0.29 0.31 0.34 0.41 0.40 0.32 0.25 0.22 0.25 0.29 0.31 0.38 0.51 0.40 0.41 0.45 0.45 0.41 0.47 0.41 0.42 0.46 0.46 0.50 0.46 0.50 0.45 0.31 0.24 0.16 0.14 0.13 0.13 0.19 0.30

GFSNE_prec_precacc_111.txt.gz
Total_Precipitation_Accumulation
1.42 1.35 1.29 1.17 1.25 1.29 1.42 1.65 2.12 2.00 1.24 0.74 0.64 0.60 0.62 0.67 0.81 0.78 0.69 0.86 0.94 0.97 0.99 1.04 0.93 0.95 0.91 0.95 1.05 0.96 1.11 1.25 0.98 0.67 0.62 0.70 0.84 1.00
1.42 1.46 1.47 1.40 1.33 1.24 1.18 1.25 1.38 1.71 1.63 0.94 0.82 0.85 1.03 1.19 1.35 1.23 1.10 1.24 1.01 0.90 0.89 0.71 0.61 0.53 0.49 0.50 0.54 0.56 0.64 0.86 0.99 0.89 0.67 0.76 1.01 1.08
1.59 1.84 1.95 2.06 2.24 2.19 2.21 2.32 2.42 2.47 2.44 1.60 1.23 1.12 1.09 1.10 1.09 0.99 0.90 0.69 0.61 0.73 0.59 0.47 0.35 0.29 0.29 0.31 0.35 0.36 0.39 0.46 0.57 0.62 0.63 0.59 0.62 0.69
0.55 0.71 0.79 0.95 1.21 1.42 1.65 1.81 2.14 2.56 2.96 2.32 1.63 1.43 1.30 1.12 0.94 0.71 0.60 0.59 0.56 0.68 0.58 0.43 0.32 0.22 0.22 0.26 0.26 0.28 0.30 0.30 0.31 0.33 0.32 0.29 0.28 0.32
0.36 0.41 0.44 0.47 0.54 0.58 0.69 0.87 1.03 1.18 1.41 1.37 1.07 0.96 0.96 1.07 1.16 1.06 0.89 0.72 0.61 0.72 0.51 0.39 0.36 0.37 0.33 0.23 0.20 0.19 0.19 0.16 0.15 0.13 0.17 0.20 0.26 0.23
0.13 0.15 0.22 0.31 0.43 0.62 0.86 0.96 0.92 0.80 0.72 0.65 0.60 0.52 0.49 0.52 0.61 0.62 0.58 0.47 0.37 0.31 0.27 0.18 0.16 0.14 0.16 0.21 0.17 0.13 0.13 0.16 0.19 0.18 0.16 0.14 0.16 0.23
0.26 0.31 0.37 0.49 0.57 0.53 0.45 0.36 0.37 0.41 0.43 0.47 0.42 0.33 0.28 0.25 0.26 0.27 0.29 0.32 0.34 0.29 0.20 0.13 0.09 0.07 0.07 0.11 0.14 0.13 0.13 0.16 0.16 0.18 0.19 0.18 0.16 0.23
0.34 0.37 0.41 0.50 0.40 0.39 0.30 0.26 0.22 0.26 0.25 0.21 0.16 0.12 0.09 0.11 0.15 0.22 0.32 0.43 0.42 0.26 0.23 0.19 0.13 0.08 0.02 0.02 0.05 0.09 0.11 0.12 0.13 0.14 0.15 0.15 0.13 0.14
0.25 0.23 0.20 0.19 0.17 0.13 0.19 0.21 0.25 0.23 0.18 0.12 0.08 0.06 0.07 0.07 0.15 0.19 0.17 0.19 0.14 0.10 0.21 0.28 0.25 0.22 0.12 0.09 0.09 0.06 0.10 0.11 0.09 0.07 0.06 0.07 0.08 0.09
0.15 0.13 0.09 0.04 0.03 0.03 0.05 0.11 0.08 0.11 0.16 0.18 0.16 0.16 0.19 0.21 0.24 0.28 0.14 0.11 0.10 0.08 0.14 0.22 0.16 0.21 0.18 0.19 0.24 0.16 0.16 0.12 0.08 0.07 0.06 0.05 0.07 0.08
0.07 0.02 0.01 0.00 0.03 0.03 0.04 0.02 0.00 0.01 0.09 0.17 0.26 0.36 0.43 0.43 0.33 0.29 0.34 0.34 0.26 0.13 0.09 0.09 0.09 0.14 0.16 0.16 0.19 0.26 0.26 0.25 0.19 0.13 0.09 0.05 0.04 0.05
0.00 0.00 0.02 0.01 0.03 0.05 0.04 0.01 0.01 0.01 0.05 0.05 0.08 0.16 0.26 0.32 0.36 0.23 0.17 0.31 0.33 0.40 0.27 0.33 0.18 0.13 0.27 0.13 0.15 0.21 0.23 0.26 0.21 0.16 0.12 0.08 0.06 0.07
0.01 0.00 0.00 0.02 0.05 0.06 0.05 0.02 0.03 0.04 0.04 0.03 0.04 0.10 0.17 0.27 0.31 0.31 0.30 0.39 0.46 0.33 0.14 0.50 0.57 0.30 0.46 0.18 0.06 0.11 0.12 0.16 0.18 0.13 0.08 0.06 0.06 0.11
0.02 0.02 0.01 0.05 0.05 0.04 0.05 0.05 0.07 0.08 0.04 0.03 0.03 0.06 0.13 0.19 0.25 0.30 0.38 0.47 0.49 0.50 0.27 0.34 0.73 0.33 0.55 0.39 0.17 0.11 0.12 0.11 0.14 0.14 0.10 0.10 0.10 0.07
0.03 0.05 0.06 0.05 0.05 0.04 0.06 0.08 0.07 0.06 0.03 0.04 0.04 0.05 0.07 0.12 0.21 0.36 0.47 0.50 0.57 0.59 0.54 0.53 0.61 0.49 0.63 0.59 0.32 0.14 0.21 0.20 0.14 0.13 0.16 0.18 0.15 0.11
0.07 0.08 0.10 0.09 0.10 0.09 0.10 0.10 0.08 0.08 0.08 0.10 0.08 0.06 0.09 0.15 0.21 0.30 0.38 0.40 0.48 0.45 0.51 0.54 0.51 0.65 0.80 0.55 0.53 0.35 0.19 0.30 0.30 0.26 0.28 0.23 0.18 0.20
0.31 0.20 0.16 0.11 0.10 0.10 0.10 0.11 0.16 0.16 0.17 0.15 0.19 0.20 0.17 0.18 0.19 0.18 0.28 0.39 0.51 0.43 0.37 0.39 0.47 0.51 0.53 0.51 0.64 0.40 0.27 0.20 0.21 0.35 0.43 0.42 0.29 0.36
0.37 0.25 0.15 0.12 0.11 0.11 0.14 0.18 0.21 0.25 0.24 0.27 0.28 0.29 0.32 0.30 0.28 0.29 0.30 0.34 0.41 0.35 0.41 0.44 0.44 0.60 0.62 0.54 0.50 0.50 0.47 0.27 0.18 0.18 0.32 0.71 0.40 0.23
0.37 0.14 0.10 0.11 0.12 0.14 0.17 0.19 0.19 0.17 0.25 0.36 0.44 0.44 0.47 0.47 0.48 0.40 0.35 0.40 0.38 0.37 0.43 0.47 0.61 0.85 0.96 0.52 0.35 0.35 0.68 0.57 0.31 0.25 0.30 0.43 0.48 0.31
0.18 0.11 0.07 0.08 0.15 0.20 0.21 0.25 0.27 0.28 0.33 0.34 0.40 0.43 0.52 0.58 0.49 0.38 0.34 0.40 0.42 0.38 0.40 0.44 0.50 0.66 1.07 0.75 0.67 0.39 0.38 0.73 0.84 0.57 0.35 0.31 0.43 0.37
0.07 0.13 0.09 0.10 0.17 0.23 0.28 0.31 0.36 0.37 0.37 0.42 0.38 0.38 0.40 0.60 0.50 0.36 0.40 0.36 0.40 0.44 0.41 0.26 0.22 0.42 0.69 0.92 0.97 0.56 0.50 0.51 0.73 1.07 0.81 0.63 0.31 0.28
0.09 0.17 0.19 0.18 0.24 0.28 0.32 0.34 0.38 0.37 0.32 0.31 0.30 0.31 0.37 0.49 0.59 0.50 0.45 0.55 0.37 0.26 0.29 0.30 0.47 0.55 0.67 0.90 0.60 0.33 0.37 0.42 0.47 0.45 0.59 1.09 1.12 0.87
0.23 0.27 0.27 0.29 0.31 0.34 0.41 0.40 0.32 0.25 0.22 0.25 0.29 0.31 0.39 0.52 0.40 0.41 0.45 0.45 0.41 0.48 0.42 0.43 0.47 0.49 0.53 0.52 0.57 0.53 0.43 0.39 0.32 0.32 0.32 0.30 0.35 0.38